Terminal Aerodrome Forecast
Issued by NWS Louisville, KY

Home | Current Version | Previous Version | Text Only | Print | Product List | Glossary On
Versions: 1 2 3 4 5 6 7 8 9 10 11 12 13 14 15 16 17
000
FTUS43 KLMK 272320
TAFLEX
TAF
KLEX 272320Z 2800/2824 16007KT 6SM -TSRA BR SCT040CB BKN100
      TEMPO 2800/2802 VRB15G25KT 4SM TSRA OVC040CB
     FM280400 18006KT P6SM SHRA OVC050
     FM280800 19006KT 6SM BR OVC025
     FM280900 VRB05KT 5SM BR OVC011
     FM281300 26006KT 5SM BR OVC007
     FM282100 32005KT 6SM BR BKN012=

USA.gov is the U.S. government's official web portal to all federal, state and local government web resources and services.